Погода Петропавловск-Каз.

Погода Петропавловск-Каз. : погода сейчас, прогноз погоды и архив. Всё, что Вы хотите узнать о погоде Петропавловск-Каз.!

Поиск расширенной информации на нашем сайте:

Другие новости

Новости СМИ2

Главная страница сайта

Новости сайта

03.07.2017

Напоминаем, что на нашем специализированном сайте Метеоцентр.Азия вы можете получить высокодетализированные автоматические прогнозы погоды по пунктам России, СНГ и мира в авиационном формате (включающие направление и скорость ветра, видимость, явления погоды, количество и форму облачности, нижнюю и верхнюю границу облачности).


Погода Петропавловск-Каз. - сегодня

Время (UTC), дата Ветер
(°,м/с) 
Видим.   Явления Облачность Т
(°С)
Тd
(°С)
f(%) Тe
(°С)
Pmin
(гПа)
dP
(гПа)
Po
(мм)
O2
(г/м3)
Тmin Tmax R s Состояние
почвы
03 20.08.17 270 (З) 10 км    8/1 1000 м верхняя 
[Sc|Ci fib]
+13.7 +9.6 76 +14  1025  0.4  760  290           
06 20.08.17 270 (З) 10 км    6/0 верхняя 
[Cs]
+22 +8 41 +22  1023.8  -0.8  759  282  +8.4         
09 20.08.17 270 (З) 10 км    8/5 600 м кучево-дожд., верхняя 
[Cb cap|Ci fib]
+24 +5.7 31 +24  1022.8  -1  758  280           
12 20.08.17 230 (ЮЗ) 10 км    6/4 600 м кучево-дожд., верхняя 
[Cb cap|Ci fib]
+24.6 +6.1 30 +25  1021.9  -0.7  758  279           
15 20.08.17 260 (З) 10 км    4/0 верхняя 
[Cs]
+18.9 +9.6 55 +20  1022.1  -0.1  758  284    +24.9       
18 20.08.17 тихо ()   н/о  дымка  ясно 
+13.2 +10.3 83 +15  1022.8  0.5  758  289    +24.9       
21 20.08.17 тихо ()   н/о  дымка  ясно 
+10.8 +8.6 86 +11  1022.6  -0.3  758  292           
06 21.08.17 340 (С) 10 км    ясно 
+24.2 +10.5 42 +26  1023.2  0.2  759  279  +8.6         
09 21.08.17 320 (СЗ) 10 км    6/4 1000 м средняя 
[Cu hum|Ac trans]
+26.2 +7.8 31 +26  1022.3  -0.8  758  277           
12 21.08.17 270 (З) 10 км    4/0 средняя 
[Ac trans]
+25.9 +8 32 +26  1022  -0.4  758  278           
15 21.08.17 тихо ()   10 км    6/4 1000 м средняя 
[Sc|Ac trans]
+21 +10.1 50 +22  1022.4  0.3  758  282    +26.5       
18 21.08.17 200 (Ю) н/о    ясно 
+15.7 +11 74 +19  1023.1  0.4  758  287    +26.5       
21 21.08.17 тихо ()   н/о  дымка  ясно 
+12.6 +10.3 86 +14  1023.6  0.4  759  290           
00 22.08.17 тихо ()   4000 м  дымка  3/0 средняя 
[Ac trans]
+10.4 +8.8 90 +10  1024.4  0.7  759  293           
03 22.08.17 320 (СЗ) 10 км    4/0 средняя, верхняя 
[Ac trans|Ci fib]
+17.1 +10.5 65 +21  1024.8  0.7  760  286           
06 22.08.17 310 (СЗ) 10 км    3/0 верхняя 
[Ci fib]
+25 +11.1 42 +27  1024.6  0.1  760  278  +10.4         
09 22.08.17 340 (С) 10 км    6/3 1000 м средняя 
[Cu hum|Ac trans]
+27.2 +10.5 35 +29  1023.6  -0.9  759  276           
12 22.08.17 360 (С) 10 км    4/0 средняя 
[Ac trans]
+26.5 +13.6 45 +33  1023.1  -0.5  759  276           
15 22.08.17 310 (СЗ) 10 км    3/0 верхняя 
[Ci fib]
+22.3 +14.7 62 +30  1023.6  0.3  759  280    +27.6       
18 22.08.17 310 (СЗ) н/о    ясно 
+17.7 +13.6 77 +25  1024.7  0.9  760  285    +27.6       
21 22.08.17 250 (З) н/о  дымка  ясно 
+15.8 +14 89 +24  1025.6  0.8  760  287           
00 23.08.17 тихо ()   4000 м  дымка  ясно 
+13.7 +12 89 +17  1026.6  761  290           
06 23.08.17 330 (СЗ) 10 км    ясно 
+25.8 +14.8 51 +34  1027.7  0.1  762  278  +13.7         
09 23.08.17 070 (В) 10 км    1/1 600 м 
[Cu med, cong]
+29 +13.5 39 +35  1027.1  0.4  762  275           
12 23.08.17 040 (СВ) 10 км    3/3 600 м 
[Sc diur, vesp]
+29.2 +12.9 37 +34  1026.9  -0.3  761  275           
Время (UTC), дата Ветер
(°,м/с) 
Видим.   Явления Облачность Т
(°С)
Тd
(°С)
f(%) Тe
(°С)
Pmin
(гПа)
dP
(гПа)
Po
(мм)
O2
(г/м3)
Тmin Tmax R s Состояние
почвы

Для получения пояснительной информации подведите курсор к названию столбца.

ПОГОДА Петропавловск-Каз. - архив

Всё, что Вы хотите узнать о погоде Петропавловск-Каз. - удобно и подробно!

Выберите нужную дату (начиная с 1 января 2015* года) и нажмите кнопку "Найти".
Будут отображены архивные сводки погоды по пункту Петропавловск-Каз., начиная с указанной даты.


Отображать данные в формате CSV (для использования в таблицах Excel)


Внимание! Наш архив погоды предназначен исключительно для личного некоммерческого использования в познавательных целях. Если Вам необходимы официальные справки о состоянии погоды (для производственных, юридических, коммерческих и т.п. целей), обращайтесь в органы Росгидромета.

*Примечание: данная дата относится к архиву по метеостанциям СССР (Россия, СНГ, Балтия).
Архив по метеостанциям Зарубежной Европы и Азии (кроме Китая) хранится 10 дней, по другим регионам земного шара (Китай, Африка, Америка, Австралия, Океания) - 1 день.

Петропавловск-Каз. - район местоположения метеостанции


Название, широта, долгота, высота метеостанции:
Петропавловск-Каз. 54.8°ш. 69.2°д. 142 м над ур. моря [Казахстан]

Дополнительная информация

В oтличие oт бoльшинства пoгoдных сайтoв мы публикуем пoдрoбную метеoинфoрмацию в детальнoм прoфессиoнальнoм фoрмате.

Характеристики температуры и влажнoсти вoздуха измеряются на высoте 2 м в тени вдали oт зданий и деревьев.
Скoрoсть ветра измеряется на высoте 10 м (на урoвне рoста челoвека скoрoсть ветра ниже в 1.5-2 раза). Если метеoстанция нахoдится в гoрoде или в лесу, тo скoрoсть ветра занижена на 2-4 м/с пo сравнению с oткрытым местoм. Скoрoсть ветра над акватoриями крупных рек и oзёр, а также на вершинах хoлмoв на 2-5 м/с выше, чем в oбычных услoвиях.
Атмoсфернoе давление в разных тoчках местнoсти мoжет значительнo oтличаться oт давления на метеoстанции, в зависимoсти oт услoвий рельефа (при пoдъёме на 10 м давление пoнижается примернo на 1 мм рт.ст.).